Regional Weather Roundup
Issued by NWS

Home | Current Version | Previous Version | Text Only | Print | Product List | Glossary Off
Versions: 1 2 3 4 5 6 7 8 9 10 11 12 13 14 15 16 17 18 19 20 21 22 23 24 25 26 27 28 29 30 31 32 33 34 35 36 37 38 39 40 41 42 43 44 45 46 47 48 49

000
ASUS45 KBOU 161407
RWRCO

WEATHER ROUNDUP FOR COLORADO
NATIONAL WEATHER SERVICE DENVER/BOULDER CO
800 AM MDT TUE SEP 16 2014

NOTE: "FAIR" INDICATES FEW OR NO CLOUDS BELOW 12000 FEET WITH NO
SIGNIFICANT WEATHER AND/OR OBSTRUCTIONS TO VISIBILITY.

COZ001>005-013-030-031-161500-
...NORTHWEST COLORADO...

CITY           SKY/WX    TMP DP  RH WIND       PRES   REMARKS
CRAIG          MOSUNNY   44  40  85 NW7       30.32R
HAYDEN         CLOUDY    52  37  58 E13       30.33S
MEEKER         MOSUNNY   47  39  74 CALM      30.33R
MOUNT WERNER   NOT AVBL
STEAMBOAT SPGS MOSUNNY   43  38  82 CALM      30.35S
WALDEN         PTSUNNY   43  34  70 SE3       30.42R
$$

COZ006>008-011-161500-
...WEST CENTRAL VALLEYS...

CITY           SKY/WX    TMP DP  RH WIND       PRES   REMARKS
GRAND JUNCTION SUNNY     58  43  57 E3        30.23R
MONTROSE       SUNNY     55  42  61 S6        30.32R
EAGLE          SUNNY     43  39  87 CALM      30.42R
RIFLE          MOSUNNY   50  41  71 CALM      30.31R
DELTA          SUNNY     60  41  49 E6        30.28S HAZE
NUCLA          NOT AVBL
$$

COZ017>023-064>068-161500-
...SOUTHWEST COLORADO...

CITY           SKY/WX    TMP DP  RH WIND       PRES   REMARKS
DURANGO        SUNNY     55  44  66 N3        30.37S
CORTEZ         SUNNY     54  45  71 E3        30.32R
PAGOSA SPRINGS SUNNY     51  41  69 CALM      30.44S
TELLURIDE      NOT AVBL
WOLF CREEK PAS SUNNY     46  32  57 CALM      30.68S
$$

COZ009-010-012-014-032>034-037-058>063-161500-
...CENTRAL COLORADO...

CITY           SKY/WX    TMP DP  RH WIND       PRES   REMARKS
ASPEN          MOSUNNY   49  37  63 S3        30.42R
BUENA VISTA    SUNNY     47  38  69 NW3       30.46F
COPPER MTN     SUNNY     46  28  49 W14       30.68R
BERTHOUD PASS  FAIR      39  37  93 NW24G33   30.67S
COTTONWOOD PAS SUNNY     54  32  43 S3        30.55S
GUNNISON       MOSUNNY   45  36  70 E3        30.49S
KREMMLING      SUNNY     37  34  87 CALM      30.45S
LEADVILLE      SUNNY     40  36  86 NE3       30.55R
MONARCH PASS   MOSUNNY   43  32  65 W14       30.78S
SALIDA         MOSUNNY   51  40  64 NW8       30.50S
SUNLIGHT       MOSUNNY   52  32  46 CALM      30.62R
WILKERSON PASS NOT AVBL
$$

COZ069>075-161500-
...SAN LUIS VALLEY/SANGRE DE CRISTO MOUNTAINS...

CITY           SKY/WX    TMP DP  RH WIND       PRES   REMARKS
ALAMOSA        MOSUNNY   45  40  82 CALM      30.44R
LA VETA PASS   NOT AVBL
SAGUACHE       MOSUNNY   50  37  62 NW13      30.46S
$$

COZ035-036-038>040-161500-
...NORTHERN COLORADO FRONT RANGE...

CITY           SKY/WX    TMP DP  RH WIND       PRES   REMARKS
DENVER INTL AP MOSUNNY   63  44  50 SW13      30.19S
DMNS CITY PARK   N/A     62  45  53 S8        30.19S
AURORA         MOSUNNY   62  44  52 S12       30.22S
FRONT RANGE AP MOSUNNY   64  46  52 SW12      30.20S
ERIE MUNI ARPT SUNNY     57  48  73 CALM      30.17S
BOULDER MUN AP SUNNY     66  41  39 SW6       30.18S
CENTENNIAL     MOSUNNY   64  43  46 SW13      30.23S
BROOMFIELD     MOSUNNY   63  45  51 SW6       30.21R
FORT COLLINS   SUNNY     52  48  87 N3        30.18S
LONGMONT       SUNNY     55  50  83 CALM      30.19R HAZE
$$

COZ041-046-047-076>085-087-088-161500-
...PIKES PEAK/PALMER DIVIDE AND SOUTHERN FOOTHILLS...

CITY           SKY/WX    TMP DP  RH WIND       PRES   REMARKS
COLO. SPRINGS  MOSUNNY   53  49  86 W3        30.28S
A. F. ACADEMY  SUNNY     59  44  56 NE5       30.29S
ELLICOTT       NOT AVBL
FALCON         SUNNY     65  39  39 NW13      30.30F
FORT CARSON    SUNNY     53  50  89 SW2       30.26S
LIMON          CLOUDY    53  51  93 S7        30.22F
MONUMENT HILL  SUNNY     59  41  51 W8        30.31S
TRINIDAD       SUNNY     58  48  69 W20       30.27S
$$

COZ042>045-048>051-090-091-161500-
...NORTHEAST COLORADO...

CITY           SKY/WX    TMP DP  RH WIND       PRES   REMARKS
GREELEY ARPT   SUNNY     50  43  76 CALM      30.17S
AKRON          SUNNY     57  51  80 W18       30.13F
BURLINGTON     MOSUNNY   58  52  80 SW15      30.17F
WRAY           MOSUNNY   58  54  86 SE6       30.14S
STERLING       SUNNY     54  54 100 SW8       30.12S FOG
HOLYOKE        MOSUNNY   55  54  94 SE7       30.13F
FORT MORGAN    MOSUNNY   49  47  96 W8        30.15S FOG
$$

COZ086-089-092>099-161500-
...SOUTHEAST COLORADO...

CITY           SKY/WX    TMP DP  RH WIND       PRES   REMARKS
PUEBLO         CLOUDY    57  52  83 NW3       30.23S
LA JUNTA       SUNNY     56  52  86 W6        30.21S
LAMAR          CLOUDY    60  53  77 S7        30.18F
SPRINGFIELD      N/A     57  54  89 S10       30.22S
$$


USA.gov is the U.S. government's official web portal to all federal, state and local government web resources and services.